Flag for India Weather past 2 weeks in Balurghat, West Bengal, India

Now
59 °F

Fog.


Feels Like: 60 °F
Forecast: 58 / 77 °F
Wind: 3 mph from Northwest

Location: Varanasi / Babatpur

Current Time: Jan 29, 2015 at 2:10:55 AM

Latest Report: Jan 29, 2015 at 12:00 AM


Visibility: 1 mi

Pressure: 30.01 "Hg

Humidity: 94%

Dew point: 57 °F

Location of BalurghatLocation

Historic Weather in Balurghat — Graph

°F

Balurghat temperature yesterday

Maximum temperature yesterday: 70 °F (at 4:00 PM)
Minimum temperature yesterday: 59 °F (at 10:00 PM)
Average temperature yesterday: 63 °F

Past Weeks' High & Low Weather Summary

 TemperatureHumidityPressure
High73 °F (Jan 23, 3:00 PM)100% (Jan 14, 12:00 AM)30.24 "Hg (Jan 14, 12:00 AM)
Low41 °F (Jan 21, 6:00 AM)44% (Jan 22, 3:00 PM)29.89 "Hg (Jan 22, 12:00 AM)
Average56 °F89%30.08 "Hg
* Reported Midnight between Jan 13 and Jan 14 — Midnight between Jan 28 and Jan 29, Balurghat, Weather by CustomWeather, © 2014

Note: Actual official high and low records may vary slightly from our data, if they occured in-between our weather recording intervals... More about our weather records

Advertising

Balurghat weather history for previous 24 hours

 ConditionsComfort  
Time TempWeatherWind HumidityBarometerVisibility
12:00 AM
Jan 29
59 °FFog.3 mph94%30.01 "Hg1 mi
11:00 PM
Jan 28
59 °FFog.3 mph100%30.01 "Hg1 mi
10:00 PM59 °FFog.2 mph100%30.01 "Hg1 mi
9:00 PM61 °FFog.3 mph94%30.01 "Hg1 mi
8:00 PM63 °FFog.No wind94%30.01 "Hg1 mi
7:00 PM63 °FFog.2 mph94%29.98 "Hg1 mi
6:00 PM64 °FFog.No wind88%29.98 "Hg1 mi
5:00 PM66 °FHaze.2 mph78%29.98 "Hg1 mi
4:00 PM70 °FScattered clouds.8 mph73%29.98 "Hg1 mi
3:00 PM68 °FFog.5 mph78%29.98 "Hg1 mi
2:00 PM68 °FFog.3 mph78%30.01 "Hg1 mi
1:00 PM68 °FFog.3 mph83%30.04 "Hg1 mi
12:00 PM66 °FFog.3 mph88%30.07 "Hg1 mi
11:00 AM64 °FFog.6 mph94%N/A1 mi
10:00 AM63 °FFog.3 mph94%30.07 "Hg1 mi
9:00 AM61 °FFog.3 mph100%30.07 "Hg1 mi
8:00 AM61 °FFog.1 mph100%30.04 "Hg1 mi
5:00 AM61 °FFog.1 mph100%29.98 "Hg1 mi
4:00 AM61 °FLight rain. Partly cloudy.3 mph100%29.98 "Hg1 mi
Weather by CustomWeather, © 2014

See weather overviewHow to use our weather pages